This is the latest recevied weather packets stored in our database for station/object IW2NIA-3. If no packets are shown the sender has not sent any weather packets the latest 10 day(s).
| Time | Temp. | Humidity | Pressure | Rain* | Wind** | Luminosity | Snow |
|---|---|---|---|---|---|---|---|
| 1777840408 | 16.67° C | 60% | 1016.6 hPa | 0 mm | - | - | - |
| 1777839526 | 16.67° C | 59% | 1016.7 hPa | 0 mm | - | - | - |
| 1777838620 | 16.67° C | 54% | 1016.5 hPa | 0 mm | - | - | - |
| 1777837712 | 17.22° C | 53% | 1016.3 hPa | 0 mm | - | - | - |
| 1777836809 | 17.22° C | 50% | 1016.2 hPa | 0 mm | - | - | - |
| 1777835925 | 17.78° C | 48% | 1016 hPa | 0 mm | - | - | - |
| 1777835025 | 18.33° C | 47% | 1015.9 hPa | 0 mm | - | - | - |
| 1777834120 | 18.89° C | 46% | 1015.8 hPa | 0 mm | - | - | - |
| 1777833219 | 18.89° C | 53% | 1015.8 hPa | 0 mm | - | - | - |
| 1777832310 | 19.44° C | 56% | 1015.7 hPa | 0 mm | - | - | - |
| 1777831420 | 20° C | 57% | 1015.7 hPa | 0 mm | - | - | - |
| 1777830516 | 20.56° C | 47% | 1015.6 hPa | 0 mm | - | - | - |
| 1777829609 | 21.11° C | 45% | 1015.6 hPa | 0 mm | - | - | - |
| 1777828722 | 21.11° C | 42% | 1015.7 hPa | 0 mm | - | - | - |
| 1777827817 | 21.11° C | 41% | 1015.6 hPa | 0 mm | - | - | - |
| 1777826913 | 21.67° C | 41% | 1015.7 hPa | 0 mm | - | - | - |
| 1777826006 | 21.67° C | 43% | 1015.7 hPa | 0 mm | - | - | - |
| 1777825122 | 21.67° C | 42% | 1015.7 hPa | 0 mm | - | - | - |
| 1777824213 | 21.67° C | 41% | 1016 hPa | 0 mm | - | - | - |
| 1777823309 | 21.67° C | 43% | 1016.2 hPa | 0 mm | - | - | - |
| 1777822422 | 21.67° C | 43% | 1016.3 hPa | 0 mm | - | - | - |
| 1777821512 | 21.67° C | 46% | 1016.3 hPa | 0 mm | - | - | - |
| 1777820627 | 21.67° C | 44% | 1016.5 hPa | 0 mm | - | - | - |
| 1777819717 | 21.67° C | 42% | 1016.6 hPa | 0 mm | - | - | - |
| 1777818815 | 21.67° C | 43% | 1016.9 hPa | 0 mm | - | - | - |
* Rain latest hour (hover to see other rain measurements)
** Current wind speed in m/s (hover to see current wind gust speed)